Penn Yan, NY

1:35 PM EDT on June 22, 2017 (GMT -0400)
Penn Yan

Weather History for KPEO - August, 2013

Change the Weather History Date:

Thursday, August 8, 2013

  Actual Average (KITH) Record (KITH)
Temperature  
Mean Temperature 74 °F -  
Max Temperature 82 °F 79 °F 96 °F (2001)
Min Temperature 66 °F 58 °F 32 °F (1998)
Cooling Degree Days 8    
Growing Degree Days 24 (Base 50)    
Moisture  
Dew Point 66 °F    
Average Humidity 87    
Maximum Humidity 96    
Minimum Humidity 67    
Precipitation  
Precipitation 0.79 in - - ()
Sea Level Pressure  
Sea Level Pressure 29.96 in    
Wind  
Wind Speed 6 mph (SSW)    
Max Wind Speed 15 mph    
Max Gust Speed 20 mph    
Visibility 8 miles    
Events Rain , Thunderstorm    
Averages and records for this station are not official NWS values.
T = Trace of Precipitation, MM = Missing Value Source: NWS Daily Summary

Daily Weather History Graph

Daily Weather History Graph

Search for Another Location

Airport or City:

Trip Planner

Search our weather history database for the weather conditions in past years. The results will help you decide how hot, cold, wet, or windy it might be!

Date:

Astronomy

Aug. 08, 2013 Rise Set
Actual Time 6:07 AM EDT 8:19 PM EDT
Civil Twilight 5:36 AM EDT 8:50 PM EDT
Nautical Twilight 4:57 AM EDT 9:28 PM EDT
Astronomical Twilight 4:15 AM EDT 10:10 PM EDT
Moon 7:56 AM EDT (8/8) 8:52 PM EDT (8/8)
Length of Visible Light 15h 13m
Length of Day
14h 11m
Waxing Crescent, 3% of the Moon is Illuminated
Aug 8
Waxing Crescent
Aug 14
First Quarter
Aug 20
Full
Aug 28
Last Quarter
Sep 5
New

Hourly Weather History & Observations

Time (EDT) Temp. Heat Index Dew Point Humidity Pressure Visibility Wind Dir Wind Speed Gust Speed Precip Events Conditions
12:53 AM 70.0 °F - 64.9 °F 84% 29.95 in 10.0 mi South 8.1 mph - N/A   Clear
1:53 AM 66.9 °F - 63.0 °F 87% 29.96 in 10.0 mi South 4.6 mph - N/A   Clear
2:53 AM 69.1 °F - 62.1 °F 78% 29.94 in 10.0 mi South 8.1 mph - N/A   Clear
3:53 AM 68.0 °F - 63.0 °F 84% 29.94 in 10.0 mi Variable 4.6 mph - N/A   Clear
4:53 AM 68.0 °F - 63.0 °F 84% 29.96 in 10.0 mi SW 9.2 mph - 0.00 in Rain Light Rain
5:14 AM 66.2 °F - 62.6 °F 88% 30.00 in 6.0 mi WSW 6.9 mph - 0.02 in Rain , Thunderstorm Light Rain
5:29 AM 66.2 °F - 64.4 °F 94% 30.01 in 5.0 mi SW 5.8 mph - 0.05 in Rain Rain
5:53 AM 66.9 °F - 63.0 °F 87% 29.99 in 4.0 mi SSW 6.9 mph - 0.10 in Rain , Thunderstorm Thunderstorms and Rain
6:07 AM 66.2 °F - 62.6 °F 88% 29.98 in 4.0 mi South 13.8 mph - 0.04 in Rain Rain
6:20 AM 66.2 °F - 62.6 °F 88% 29.97 in 5.0 mi SSW 11.5 mph - 0.07 in Rain , Thunderstorm Rain
6:35 AM 66.2 °F - 64.4 °F 94% 29.99 in 10.0 mi SSW 15.0 mph 19.6 mph 0.08 in Rain Light Rain
6:53 AM 66.0 °F - 64.0 °F 93% 29.97 in 10.0 mi SSW 13.8 mph 19.6 mph 0.08 in   Partly Cloudy
7:53 AM 68.0 °F - 64.9 °F 90% 29.97 in 10.0 mi Calm Calm - N/A   Mostly Cloudy
8:53 AM 70.0 °F - 64.9 °F 84% 29.98 in 10.0 mi SSW 8.1 mph - N/A   Partly Cloudy
9:53 AM 73.0 °F - 64.9 °F 76% 29.98 in 10.0 mi South 9.2 mph - N/A   Clear
10:53 AM 75.0 °F - 66.0 °F 73% 29.97 in 10.0 mi Variable 4.6 mph - N/A   Clear
11:53 AM 78.1 °F - 68.0 °F 71% 29.96 in 10.0 mi SSE 9.2 mph - N/A   Clear
12:53 PM 81.0 °F 84.4 °F 70.0 °F 69% 29.96 in 10.0 mi South 5.8 mph - N/A   Mostly Cloudy
1:53 PM 81.0 °F 84.1 °F 69.1 °F 67% 29.96 in 10.0 mi SSW 4.6 mph - N/A   Mostly Cloudy
2:53 PM 81.0 °F 85.8 °F 73.0 °F 77% 29.95 in 10.0 mi Calm Calm - 0.05 in   Scattered Clouds
3:53 PM 77.0 °F - 71.1 °F 82% 29.94 in 7.0 mi WSW 5.8 mph - 0.02 in Rain , Thunderstorm Light Rain
4:53 PM 73.0 °F - 70.0 °F 90% 29.93 in 9.0 mi NNW 5.8 mph - 0.00 in Thunderstorm Mostly Cloudy
5:21 PM 71.6 °F - 68.0 °F 88% 29.96 in 2.0 mi Calm Calm - 0.07 in Rain , Thunderstorm Light Thunderstorms and Rain
5:28 PM 69.8 °F - 68.0 °F 94% 29.97 in 0.8 mi NNW 6.9 mph - 0.12 in Rain , Thunderstorm Rain
5:48 PM 68.0 °F - 66.2 °F 94% 29.97 in 1.0 mi Variable 6.9 mph - 0.49 in Rain , Thunderstorm Light Thunderstorms and Rain
5:51 PM 68.0 °F - 66.2 °F 94% 29.96 in 2.5 mi ENE 3.5 mph - 0.49 in Rain , Thunderstorm Light Thunderstorms and Rain
5:53 PM 68.0 °F - 66.9 °F 96% 29.95 in 4.0 mi Variable 3.5 mph - 0.49 in Rain , Thunderstorm Light Thunderstorms and Rain
6:07 PM 69.8 °F - 66.2 °F 88% 29.96 in 8.0 mi Calm Calm - 0.00 in Thunderstorm Thunderstorm
6:26 PM 69.8 °F - 66.2 °F 88% 29.96 in 10.0 mi North 3.5 mph - 0.00 in   Scattered Clouds
6:39 PM 69.8 °F - 66.2 °F 88% 29.96 in 10.0 mi Calm Calm - 0.00 in Thunderstorm Mostly Cloudy
6:53 PM 70.0 °F - 66.9 °F 90% 29.94 in 10.0 mi Calm Calm - 0.00 in Rain , Thunderstorm Light Rain
7:35 PM 69.8 °F - 66.2 °F 88% 29.96 in 10.0 mi Calm Calm - 0.01 in   Mostly Cloudy
7:53 PM 69.1 °F - 66.9 °F 93% 29.94 in 10.0 mi Calm Calm - 0.01 in   Partly Cloudy
8:37 PM 69.8 °F - 66.2 °F 88% 29.98 in 10.0 mi South 5.8 mph - N/A   Mostly Cloudy
8:50 PM 69.8 °F - 68.0 °F 94% 29.97 in 10.0 mi Calm Calm - 0.00 in Rain Light Rain
8:53 PM 70.0 °F - 68.0 °F 93% 29.96 in 9.0 mi Calm Calm - 0.00 in   Mostly Cloudy
9:53 PM 69.1 °F - 68.0 °F 96% 29.96 in 7.0 mi Calm Calm - N/A   Mostly Cloudy
10:53 PM 70.0 °F - 68.0 °F 93% 29.95 in 2.5 mi Calm Calm - 0.03 in Rain Light Rain
11:01 PM 69.8 °F - 68.0 °F 94% 29.97 in 3.0 mi WSW 5.8 mph - 0.01 in Rain Light Rain
11:53 PM 70.0 °F - 68.0 °F 93% 29.94 in 9.0 mi Calm Calm - 0.01 in   Overcast